This is the latest recevied weather packets stored in our database for station/object KC1IUC-15. If no packets are shown the sender has not sent any weather packets the latest 10 day(s).
| Time | Temp. | Humidity | Pressure | Rain* | Wind** | Luminosity | Snow |
|---|---|---|---|---|---|---|---|
| 1777995003 | 23.33° C | 52% | 1009.9 hPa | 0 mm | - | 660 W/m² | - |
| 1777994703 | 23.33° C | 53% | 1009.9 hPa | 0 mm | - | 654 W/m² | - |
| 1777994403 | 22.78° C | 52% | 1009.6 hPa | 0 mm | - | 650 W/m² | - |
| 1777994104 | 22.78° C | 53% | 1009.9 hPa | 0 mm | - | 644 W/m² | - |
| 1777993803 | 22.78° C | 52% | 1009.9 hPa | 0 mm | - | 637 W/m² | - |
| 1777993503 | 22.78° C | 53% | 1009.9 hPa | 0 mm | - | 627 W/m² | - |
| 1777993203 | 22.78° C | 54% | 1010.3 hPa | 0 mm | - | 621 W/m² | - |
| 1777992903 | 21.67° C | 55% | 1010.3 hPa | 0 mm | - | 611 W/m² | - |
| 1777992603 | 21.67° C | 58% | 1009.9 hPa | 0 mm | - | 600 W/m² | - |
| 1777992303 | 21.11° C | 60% | 1010.3 hPa | 0 mm | - | 589 W/m² | - |
| 1777992003 | 21.11° C | 58% | 1009.9 hPa | 0 mm | - | 575 W/m² | - |
| 1777991703 | 20.56° C | 60% | 1010.6 hPa | 0 mm | - | 572 W/m² | - |
| 1777991403 | 20° C | 60% | 1009.9 hPa | 0 mm | - | 560 W/m² | - |
| 1777991103 | 20.56° C | 59% | 1009.9 hPa | 0 mm | - | 550 W/m² | - |
| 1777990803 | 20° C | 60% | 1009.9 hPa | 0 mm | - | 538 W/m² | - |
| 1777990503 | 20° C | 61% | 1010.3 hPa | 0 mm | - | 526 W/m² | - |
| 1777989903 | 20° C | 61% | 1009.9 hPa | 0 mm | - | 505 W/m² | - |
| 1777989603 | 18.89° C | 65% | 1009.9 hPa | 0 mm | - | 490 W/m² | - |
| 1777989303 | 18.89° C | 65% | 1009.9 hPa | 0 mm | - | 478 W/m² | - |
| 1777989003 | 18.33° C | 66% | 1009.9 hPa | 0 mm | - | 399 W/m² | - |
| 1777988703 | 17.78° C | 68% | 1009.9 hPa | 0 mm | - | 455 W/m² | - |
| 1777988403 | 17.22° C | 68% | 1010.3 hPa | 0 mm | - | 440 W/m² | - |
| 1777988103 | 16.67° C | 73% | 1009.9 hPa | 0 mm | - | 412 W/m² | - |
| 1777987803 | 16.11° C | 72% | 1009.9 hPa | 0 mm | - | 273 W/m² | - |
| 1777987503 | 16.11° C | 73% | 1009.9 hPa | 0 mm | - | 163 W/m² | - |
* Rain latest hour (hover to see other rain measurements)
** Current wind speed in m/s (hover to see current wind gust speed)